Change the Weather History Date:

Thursday, October 18, 2012

  Actual Average (KTOL) Record (KTOL)
Temperature  
Mean Temperature 57 °F 52 °F  
Max Temperature 63 °F 62 °F 83 °F (1950)
Min Temperature 51 °F 41 °F 17 °F (1976)
Degree Days  
Heating Degree Days 8 14  
Month to date heating degree days 199  
Since 1 July heating degree days 323  
Cooling Degree Days 0 0  
Month to date cooling degree days 8  
Year to date cooling degree days 792  
Growing Degree Days 7 (Base 50)    
Moisture  
Dew Point 42 °F    
Average Humidity 59    
Maximum Humidity 92    
Minimum Humidity 33    
Precipitation  
Precipitation 0.00 in 0.08 in 0.71 in (1985)
Month to date precipitation 1.54  
Year to date precipitation 27.64  
Snow  
Snow 0.00 in 0.00 in - ()
Month to date snowfall 0.1  
Since 1 July snowfall 0.1  
Since 1 September snowfall 0.1  
Snow Depth -    
Sea Level Pressure  
Sea Level Pressure 29.55 in    
Wind  
Wind Speed 7 mph (South)    
Max Wind Speed 18 mph    
Max Gust Speed 32 mph    
Visibility 10 miles    
Events Rain    
T = Trace of Precipitation, MM = Missing Value Source: NWS Daily Summary

Daily Weather History Graph

Daily Weather History Graph

Search for Another Location

Airport or City:

Trip Planner

Search our weather history database for the weather conditions in past years. The results will help you decide how hot, cold, wet, or windy it might be!

Date:

Astronomy

Oct. 18, 2012 Rise Set
Actual Time 7:50 AM EDT 6:47 PM EDT
Civil Twilight 7:22 AM EDT 7:16 PM EDT
Nautical Twilight 6:50 AM EDT 7:48 PM EDT
Astronomical Twilight 6:18 AM EDT 8:20 PM EDT
Moon 11:34 AM EDT (10/18) 9:18 PM EDT (10/18)
Length of Visible Light 11h 53m
Length of Day
10h 57m
Waxing Crescent, 14% of the Moon is Illuminated
Oct 18
Waxing Crescent
Oct 21
First Quarter
Oct 29
Full
Nov 6
Last Quarter
Nov 13
New

Hourly Weather History & Observations

Time (EDT) Temp. Dew Point Humidity Pressure Visibility Wind Dir Wind Speed Gust Speed Precip Events Conditions
12:15 AM 58.8 °F 54.5 °F 86% 29.57 in 10.0 mi Calm Calm - N/A Rain Light Rain
12:35 AM 58.1 °F 54.5 °F 88% 29.53 in 10.0 mi East 3.5 mph - N/A   Overcast
12:55 AM 58.3 °F 54.1 °F 86% 29.52 in 10.0 mi ESE 4.6 mph - N/A   Mostly Cloudy
1:15 AM 59.2 °F 54.0 °F 83% 29.53 in 10.0 mi SSE 3.5 mph - N/A   Overcast
1:35 AM 59.4 °F 54.3 °F 83% 29.55 in 10.0 mi Calm Calm - N/A   Overcast
1:55 AM 59.0 °F 54.5 °F 85% 29.55 in 7.0 mi Calm Calm - N/A Rain Light Rain
2:15 AM 57.9 °F 54.5 °F 88% 29.54 in 10.0 mi Calm Calm - N/A   Overcast
2:35 AM 56.8 °F 54.3 °F 91% 29.53 in 4.0 mi Calm Calm - N/A Rain Light Rain
2:55 AM 56.7 °F 54.5 °F 92% 29.52 in 7.0 mi Calm Calm - N/A   Mostly Cloudy
3:15 AM 59.0 °F 52.0 °F 78% 29.51 in 10.0 mi SSE 5.8 mph - N/A   Scattered Clouds
3:35 AM 60.3 °F 50.4 °F 70% 29.50 in 10.0 mi SSE 6.9 mph - N/A Rain Light Rain
3:55 AM 60.3 °F 49.5 °F 68% 29.48 in 10.0 mi SSE 6.9 mph - N/A   Overcast
4:15 AM 61.9 °F 47.7 °F 60% 29.46 in 10.0 mi SSE 9.2 mph 17.3 mph N/A   Overcast
4:35 AM 62.8 °F 46.2 °F 55% 29.45 in 10.0 mi SSE 12.7 mph 21.9 mph N/A   Overcast
4:55 AM 63.5 °F 45.1 °F 51% 29.45 in 10.0 mi SSE 11.5 mph 21.9 mph N/A   Overcast
5:15 AM 63.5 °F 44.6 °F 50% 29.43 in 10.0 mi SSE 9.2 mph 26.5 mph N/A   Scattered Clouds
5:35 AM 63.5 °F 43.9 °F 49% 29.43 in 10.0 mi South 12.7 mph 21.9 mph N/A   Scattered Clouds
5:55 AM 63.0 °F 44.2 °F 50% 29.42 in 10.0 mi SSE 12.7 mph 20.7 mph N/A   Scattered Clouds
6:15 AM 62.6 °F 44.2 °F 51% 29.41 in 10.0 mi South 15.0 mph 23.0 mph N/A   Scattered Clouds
6:35 AM 62.1 °F 44.1 °F 52% 29.41 in 10.0 mi SSE 11.5 mph 20.7 mph N/A   Scattered Clouds
6:55 AM 61.9 °F 44.4 °F 53% 29.41 in 10.0 mi SSE 11.5 mph 20.7 mph N/A   Mostly Cloudy
7:35 AM 62.1 °F 44.6 °F 53% 29.41 in 10.0 mi South 15.0 mph 31.1 mph N/A   Mostly Cloudy
7:55 AM 60.6 °F 46.8 °F 60% 29.43 in 10.0 mi SSW 18.4 mph 32.2 mph N/A Rain Rain
8:15 AM 57.0 °F 50.0 °F 77% 29.44 in 10.0 mi South 13.8 mph 23.0 mph N/A Rain Light Rain
8:35 AM 56.3 °F 50.9 °F 82% 29.45 in 10.0 mi South 11.5 mph 20.7 mph N/A Rain Light Rain
8:55 AM 55.9 °F 51.8 °F 86% 29.44 in 7.0 mi South 10.4 mph 20.7 mph N/A Rain Light Rain
9:15 AM 54.1 °F 50.0 °F 86% 29.47 in 3.0 mi WSW 16.1 mph 29.9 mph N/A Rain Rain
9:35 AM 52.3 °F 49.1 °F 89% 29.49 in 7.0 mi SW 8.1 mph - N/A Rain Rain
9:55 AM 52.2 °F 48.7 °F 88% 29.50 in 7.0 mi SW 12.7 mph 19.6 mph N/A Rain Light Rain
10:15 AM 51.3 °F 47.3 °F 86% 29.50 in 7.0 mi SW 5.8 mph - N/A Rain Rain
10:35 AM 51.3 °F 47.8 °F 88% 29.50 in 10.0 mi SSW 9.2 mph - N/A   Overcast
10:55 AM 51.3 °F 47.3 °F 86% 29.52 in 10.0 mi SW 8.1 mph 19.6 mph N/A   Mostly Cloudy
11:15 AM 51.1 °F 46.4 °F 84% 29.53 in 10.0 mi SSW 8.1 mph 16.1 mph N/A   Mostly Cloudy
11:35 AM 51.8 °F 47.1 °F 84% 29.53 in 10.0 mi SW 6.9 mph - N/A   Mostly Cloudy
11:55 AM 52.9 °F 45.7 °F 77% 29.55 in 10.0 mi SW 12.7 mph 17.3 mph N/A   Mostly Cloudy
12:15 PM 54.3 °F 43.0 °F 66% 29.56 in 10.0 mi SW 17.3 mph 24.2 mph N/A   Mostly Cloudy
12:35 PM 57.0 °F 43.0 °F 59% 29.56 in 10.0 mi SW 18.4 mph 28.8 mph N/A   Overcast
12:55 PM 55.2 °F 40.6 °F 58% 29.57 in 10.0 mi WSW 12.7 mph 24.2 mph N/A   Mostly Cloudy
1:15 PM 56.8 °F 39.9 °F 53% 29.57 in 10.0 mi WSW 11.5 mph 26.5 mph N/A   Scattered Clouds
1:35 PM 57.7 °F 39.0 °F 50% 29.57 in 10.0 mi SSW 13.8 mph 21.9 mph N/A   Scattered Clouds
1:55 PM 59.4 °F 38.3 °F 46% 29.58 in 10.0 mi SW 13.8 mph 19.6 mph N/A   Scattered Clouds
2:15 PM 59.7 °F 36.1 °F 41% 29.58 in 10.0 mi SW 15.0 mph 24.2 mph N/A   Scattered Clouds
2:34 PM 60.1 °F 34.2 °F 38% 29.58 in 10.0 mi SW 16.1 mph 21.9 mph N/A   Clear
2:55 PM 60.3 °F 33.8 °F 37% 29.58 in 10.0 mi SSW 12.7 mph 21.9 mph N/A   Clear
3:15 PM 60.4 °F 33.1 °F 36% 29.58 in 10.0 mi SSW 10.4 mph 21.9 mph N/A   Clear
3:35 PM 61.0 °F 32.0 °F 34% 29.58 in 10.0 mi SSW 11.5 mph 21.9 mph N/A   Clear
3:55 PM 60.1 °F 31.5 °F 34% 29.58 in 10.0 mi SSW 12.7 mph 19.6 mph N/A   Scattered Clouds
4:15 PM 60.8 °F 32.0 °F 34% 29.58 in 10.0 mi SSW 13.8 mph 17.3 mph N/A   Clear
4:35 PM 60.8 °F 32.0 °F 34% 29.59 in 10.0 mi SSW 10.4 mph 19.6 mph N/A   Clear
4:55 PM 61.3 °F 32.0 °F 33% 29.59 in 10.0 mi SSW 15.0 mph 23.0 mph N/A   Scattered Clouds
5:15 PM 60.3 °F 30.9 °F 33% 29.60 in 10.0 mi SSW 15.0 mph 21.9 mph N/A   Scattered Clouds
5:35 PM 57.9 °F 34.3 °F 41% 29.62 in 10.0 mi SW 9.2 mph 28.8 mph N/A   Mostly Cloudy
5:55 PM 56.1 °F 34.5 °F 44% 29.62 in 10.0 mi SW 6.9 mph - N/A   Mostly Cloudy
6:15 PM 56.7 °F 33.6 °F 42% 29.62 in 10.0 mi SSW 15.0 mph 25.3 mph N/A   Mostly Cloudy
6:35 PM 57.2 °F 31.8 °F 38% 29.63 in 10.0 mi SSW 9.2 mph 17.3 mph N/A   Scattered Clouds
6:55 PM 56.3 °F 32.4 °F 40% 29.63 in 10.0 mi South 10.4 mph - N/A   Mostly Cloudy
7:15 PM 55.6 °F 32.7 °F 42% 29.63 in 10.0 mi South 6.9 mph 16.1 mph N/A   Scattered Clouds
7:35 PM 54.9 °F 32.9 °F 43% 29.64 in 10.0 mi South 6.9 mph - N/A   Clear
7:55 PM 54.9 °F 32.5 °F 43% 29.65 in 10.0 mi South 6.9 mph - N/A   Clear
8:15 PM 54.7 °F 32.9 °F 44% 29.65 in 10.0 mi South 9.2 mph - N/A   Clear
8:35 PM 54.1 °F 33.8 °F 46% 29.65 in 10.0 mi South 6.9 mph - N/A   Scattered Clouds
8:55 PM 53.6 °F 34.2 °F 48% 29.65 in 10.0 mi South 6.9 mph - N/A   Scattered Clouds
9:15 PM 53.6 °F 34.0 °F 47% 29.66 in 10.0 mi South 8.1 mph - N/A   Clear
9:35 PM 52.7 °F 34.3 °F 50% 29.67 in 10.0 mi South 4.6 mph - N/A   Clear
9:55 PM 52.0 °F 34.3 °F 51% 29.67 in 10.0 mi SSE 5.8 mph - N/A   Clear
10:15 PM 51.8 °F 34.5 °F 52% 29.68 in 10.0 mi SSE 3.5 mph - N/A   Clear
10:35 PM 51.3 °F 34.3 °F 52% 29.68 in 10.0 mi SSE 4.6 mph - N/A   Clear
10:55 PM 51.1 °F 34.2 °F 52% 29.68 in 10.0 mi SSE 5.8 mph - N/A   Clear
11:15 PM 51.1 °F 34.2 °F 52% 29.67 in 10.0 mi SSE 4.6 mph - N/A   Mostly Cloudy
11:35 PM 51.3 °F 34.3 °F 52% 29.67 in 10.0 mi SSE 3.5 mph - N/A   Mostly Cloudy
11:55 PM 51.1 °F 34.3 °F 53% 29.66 in 10.0 mi Calm Calm - N/A   Mostly Cloudy